Time,TemperatureF,DewpointF,PressureIn,WindDirection,WindDirectionDegrees,WindSpeedMPH,WindSpeedGustMPH,Humidity,HourlyPrecipIn,Conditions,Clouds,dailyrainin,SolarRadiationWatts/m^2,SoftwareType,DateUTC
2015-07-04 00:05:00,63.2,57.9,30.00,SE,129,0.0,0.0,83,0.00,,,0.00,0,Wunderground v.1.15,2015-07-04 04:05:00,
2015-07-04 00:11:00,63.1,57.5,30.00,SE,129,0.0,0.0,82,0.00,,,0.00,0,Wunderground v.1.15,2015-07-04 04:11:00,
2015-07-04 00:16:00,62.8,57.6,30.00,SE,129,0.0,0.0,83,0.00,,,0.00,0,Wunderground v.1.15,2015-07-04 04:16:00,
2015-07-04 00:22:00,62.7,57.5,30.01,SE,129,0.0,0.0,83,0.00,,,0.00,0,Wunderground v.1.15,2015-07-04 04:22:00,
2015-07-04 00:27:00,62.5,57.3,30.00,SE,129,0.0,0.0,83,0.00,,,0.00,0,Wunderground v.1.15,2015-07-04 04:27:00,
2015-07-04 00:33:00,62.3,57.4,30.00,SE,129,0.0,0.0,84,0.00,,,0.00,0,Wunderground v.1.15,2015-07-04 04:33:00,
2015-07-04 00:39:00,62.3,57.4,30.00,SE,129,0.0,0.0,84,0.00,,,0.00,0,Wunderground v.1.15,2015-07-04 04:39:00,
2015-07-04 00:44:00,62.3,57.4,30.00,SE,129,0.0,0.0,84,0.00,,,0.00,0,Wunderground v.1.15,2015-07-04 04:44:00,
2015-07-04 00:49:00,62.2,57.6,30.00,SE,129,0.0,0.0,85,0.00,,,0.00,0,Wunderground v.1.15,2015-07-04 04:49:00,
2015-07-04 00:55:00,62.2,57.6,30.00,SE,129,0.0,0.0,85,0.00,,,0.00,0,Wunderground v.1.15,2015-07-04 04:55:00,
2015-07-04 01:00:00,62.4,57.8,30.00,SE,129,0.0,0.0,85,0.00,,,0.00,0,Wunderground v.1.15,2015-07-04 05:00:00,
2015-07-04 01:06:00,62.4,57.8,29.99,SE,129,0.0,0.0,85,0.00,,,0.00,0,Wunderground v.1.15,2015-07-04 05:06:00,
2015-07-04 01:11:00,62.4,57.8,30.00,SE,129,0.0,0.0,85,0.00,,,0.00,0,Wunderground v.1.15,2015-07-04 05:11:00,
2015-07-04 01:17:00,62.3,57.4,30.00,SE,129,0.0,0.0,84,0.00,,,0.00,0,Wunderground v.1.15,2015-07-04 05:17:00,
2015-07-04 01:23:00,62.4,57.5,30.00,SE,129,0.0,0.0,84,0.00,,,0.00,0,Wunderground v.1.15,2015-07-04 05:23:00,
2015-07-04 01:34:00,62.7,57.8,30.00,SE,129,0.0,0.0,84,0.00,,,0.00,0,Wunderground v.1.15,2015-07-04 05:34:00,
2015-07-04 01:40:00,62.9,57.7,30.00,SE,129,0.0,0.0,83,0.00,,,0.00,0,Wunderground v.1.15,2015-07-04 05:40:00,
2015-07-04 01:46:00,62.8,57.2,30.00,SE,129,0.0,0.0,82,0.00,,,0.00,0,Wunderground v.1.15,2015-07-04 05:46:00,
2015-07-04 01:51:00,62.8,57.2,30.00,SE,129,0.0,0.0,82,0.00,,,0.00,0,Wunderground v.1.15,2015-07-04 05:51:00,
2015-07-04 01:57:00,62.7,57.1,30.00,SE,129,0.0,0.0,82,0.00,,,0.00,0,Wunderground v.1.15,2015-07-04 05:57:00,
2015-07-04 02:02:00,62.7,57.1,30.00,SE,129,0.0,0.0,82,0.00,,,0.00,0,Wunderground v.1.15,2015-07-04 06:02:00,
2015-07-04 02:07:00,62.6,57.4,30.00,SE,129,0.0,0.0,83,0.00,,,0.00,0,Wunderground v.1.15,2015-07-04 06:07:00,
2015-07-04 02:12:00,62.5,56.9,30.00,SE,129,0.0,0.0,82,0.00,,,0.00,0,Wunderground v.1.15,2015-07-04 06:12:00,
2015-07-04 02:17:00,62.4,56.8,30.00,SE,129,0.0,0.0,82,0.00,,,0.00,0,Wunderground v.1.15,2015-07-04 06:17:00,
2015-07-04 02:22:00,62.4,56.8,30.00,SE,129,0.0,0.0,82,0.00,,,0.00,0,Wunderground v.1.15,2015-07-04 06:22:00,
2015-07-04 02:27:00,62.4,56.8,30.00,SE,129,0.0,0.0,82,0.00,,,0.00,0,Wunderground v.1.15,2015-07-04 06:27:00,
2015-07-04 02:32:00,62.3,56.7,30.00,SE,129,0.0,0.0,82,0.00,,,0.00,0,Wunderground v.1.15,2015-07-04 06:32:00,
2015-07-04 02:37:00,62.4,57.2,30.00,SE,129,0.0,0.0,83,0.00,,,0.00,0,Wunderground v.1.15,2015-07-04 06:37:00,
2015-07-04 02:42:00,62.3,57.1,30.00,SE,129,0.0,0.0,83,0.00,,,0.00,0,Wunderground v.1.15,2015-07-04 06:42:00,
2015-07-04 02:47:00,62.3,57.1,30.00,SE,129,0.0,0.0,83,0.00,,,0.00,0,Wunderground v.1.15,2015-07-04 06:47:00,
2015-07-04 02:52:00,62.3,57.1,30.00,SE,129,0.0,0.0,83,0.00,,,0.00,0,Wunderground v.1.15,2015-07-04 06:52:00,
2015-07-04 02:57:00,62.2,57.0,30.00,SE,129,0.0,0.0,83,0.00,,,0.00,0,Wunderground v.1.15,2015-07-04 06:57:00,
2015-07-04 03:02:00,62.2,57.3,30.00,SE,129,0.0,0.0,84,0.00,,,0.00,0,Wunderground v.1.15,2015-07-04 07:02:00,
2015-07-04 03:07:00,62.2,57.3,30.00,SE,129,0.0,0.0,84,0.00,,,0.00,0,Wunderground v.1.15,2015-07-04 07:07:00,
2015-07-04 03:18:00,62.2,57.3,30.00,SE,129,0.0,0.0,84,0.00,,,0.00,0,Wunderground v.1.15,2015-07-04 07:18:00,
2015-07-04 03:23:00,62.2,57.3,30.00,SE,129,0.0,0.0,84,0.00,,,0.00,0,Wunderground v.1.15,2015-07-04 07:23:00,
2015-07-04 03:28:00,62.0,57.1,30.00,SE,129,0.0,0.0,84,0.00,,,0.00,0,Wunderground v.1.15,2015-07-04 07:28:00,
2015-07-04 03:33:00,61.9,57.3,30.00,SE,129,0.0,0.0,85,0.00,,,0.00,0,Wunderground v.1.15,2015-07-04 07:33:00,
2015-07-04 03:38:00,61.8,57.2,30.00,SE,129,0.0,0.0,85,0.00,,,0.00,0,Wunderground v.1.15,2015-07-04 07:38:00,
2015-07-04 03:43:00,61.9,57.3,30.00,SE,129,0.0,0.0,85,0.00,,,0.00,0,Wunderground v.1.15,2015-07-04 07:43:00,
2015-07-04 03:48:00,61.9,57.7,30.00,SE,129,0.0,0.0,86,0.00,,,0.00,0,Wunderground v.1.15,2015-07-04 07:48:00,
2015-07-04 03:53:00,61.9,57.7,30.00,SE,129,0.0,0.0,86,0.00,,,0.00,0,Wunderground v.1.15,2015-07-04 07:53:00,
2015-07-04 03:58:00,61.9,57.7,30.00,SE,129,0.0,0.0,86,0.00,,,0.00,0,Wunderground v.1.15,2015-07-04 07:58:00,
2015-07-04 04:03:00,62.0,57.8,30.00,SE,129,0.0,0.0,86,0.00,,,0.00,0,Wunderground v.1.15,2015-07-04 08:03:00,
2015-07-04 04:08:00,62.0,57.8,30.00,SE,129,0.0,0.0,86,0.00,,,0.00,0,Wunderground v.1.15,2015-07-04 08:08:00,
2015-07-04 04:13:00,62.2,58.0,29.99,SE,129,0.0,0.0,86,0.00,,,0.00,0,Wunderground v.1.15,2015-07-04 08:13:00,
2015-07-04 04:18:00,62.1,57.9,30.00,SE,129,0.0,0.0,86,0.00,,,0.00,0,Wunderground v.1.15,2015-07-04 08:18:00,
2015-07-04 04:23:00,62.2,58.0,30.00,SE,129,0.0,0.0,86,0.00,,,0.00,0,Wunderground v.1.15,2015-07-04 08:23:00,
2015-07-04 04:29:00,62.2,58.0,30.00,SE,129,0.0,0.0,86,0.00,,,0.00,0,Wunderground v.1.15,2015-07-04 08:29:00,
2015-07-04 04:34:00,62.3,58.1,30.00,SE,129,0.0,0.0,86,0.00,,,0.00,0,Wunderground v.1.15,2015-07-04 08:34:00,
2015-07-04 04:39:00,62.3,58.1,30.00,SE,129,0.0,0.0,86,0.00,,,0.00,0,Wunderground v.1.15,2015-07-04 08:39:00,
2015-07-04 04:44:00,62.2,58.3,30.00,SE,129,0.0,0.0,87,0.00,,,0.00,0,Wunderground v.1.15,2015-07-04 08:44:00,
2015-07-04 04:49:00,62.1,58.2,30.00,SE,129,0.0,0.0,87,0.00,,,0.00,0,Wunderground v.1.15,2015-07-04 08:49:00,
2015-07-04 04:54:00,62.1,58.2,30.00,SE,129,0.0,0.0,87,0.00,,,0.00,0,Wunderground v.1.15,2015-07-04 08:54:00,
2015-07-04 04:59:00,62.2,58.3,30.00,SE,129,0.0,0.0,87,0.00,,,0.00,0,Wunderground v.1.15,2015-07-04 08:59:00,
2015-07-04 05:04:00,62.2,58.3,29.99,SE,129,0.0,0.0,87,0.00,,,0.00,0,Wunderground v.1.15,2015-07-04 09:04:00,
2015-07-04 05:09:00,62.3,58.4,29.99,SE,129,0.0,0.0,87,0.00,,,0.00,0,Wunderground v.1.15,2015-07-04 09:09:00,
2015-07-04 05:14:00,62.4,58.5,29.99,SE,129,0.0,0.0,87,0.00,,,0.00,0,Wunderground v.1.15,2015-07-04 09:14:00,
2015-07-04 05:19:00,62.5,58.6,29.99,SE,129,0.0,0.0,87,0.00,,,0.00,0,Wunderground v.1.15,2015-07-04 09:19:00,
2015-07-04 05:24:00,62.5,58.3,29.99,SE,129,0.0,0.0,86,0.00,,,0.00,0,Wunderground v.1.15,2015-07-04 09:24:00,
2015-07-04 05:29:00,62.7,58.5,29.99,SE,129,0.0,0.0,86,0.00,,,0.00,0,Wunderground v.1.15,2015-07-04 09:29:00,
2015-07-04 05:34:00,62.7,58.5,29.99,SE,129,0.0,0.0,86,0.00,,,0.00,5,Wunderground v.1.15,2015-07-04 09:34:00,
2015-07-04 05:39:00,62.8,58.5,29.99,SE,129,0.0,0.0,86,0.00,,,0.00,9,Wunderground v.1.15,2015-07-04 09:39:00,
2015-07-04 05:44:00,62.7,58.5,29.99,SE,129,0.0,0.0,86,0.00,,,0.00,16,Wunderground v.1.15,2015-07-04 09:44:00,
2015-07-04 05:49:00,62.8,58.9,29.99,SE,129,0.0,0.0,87,0.00,,,0.00,21,Wunderground v.1.15,2015-07-04 09:49:00,
2015-07-04 05:54:00,62.9,59.0,29.98,SE,129,0.0,0.0,87,0.00,,,0.00,11,Wunderground v.1.15,2015-07-04 09:54:00,
2015-07-04 05:59:00,62.8,58.9,29.98,SE,129,0.0,0.0,87,0.00,,,0.00,12,Wunderground v.1.15,2015-07-04 09:59:00,
2015-07-04 06:04:00,62.9,59.3,29.98,SE,129,0.0,0.0,88,0.00,,,0.00,12,Wunderground v.1.15,2015-07-04 10:04:00,
2015-07-04 06:09:00,63.0,59.4,29.98,SE,129,0.0,0.0,88,0.00,,,0.00,19,Wunderground v.1.15,2015-07-04 10:09:00,
2015-07-04 06:14:00,63.2,59.6,29.98,SE,129,0.0,0.0,88,0.00,,,0.00,33,Wunderground v.1.15,2015-07-04 10:14:00,
2015-07-04 06:19:00,63.4,59.8,29.98,SE,129,0.0,0.0,88,0.00,,,0.00,46,Wunderground v.1.15,2015-07-04 10:19:00,
2015-07-04 06:24:00,63.6,60.3,29.98,SE,129,0.0,0.0,89,0.00,,,0.00,46,Wunderground v.1.15,2015-07-04 10:24:00,
2015-07-04 06:29:00,63.7,60.4,29.98,SE,129,0.0,0.0,89,0.00,,,0.00,47,Wunderground v.1.15,2015-07-04 10:29:00,
2015-07-04 06:34:00,63.7,60.4,29.98,SE,129,0.0,0.0,89,0.00,,,0.00,49,Wunderground v.1.15,2015-07-04 10:34:00,
2015-07-04 06:39:00,63.9,60.6,29.98,WSW,258,0.0,0.0,89,0.00,,,0.00,51,Wunderground v.1.15,2015-07-04 10:39:00,
2015-07-04 06:44:00,64.0,61.0,29.98,WSW,258,0.0,0.0,90,0.00,,,0.00,51,Wunderground v.1.15,2015-07-04 10:44:00,
2015-07-04 06:49:00,64.0,60.7,29.98,WSW,258,0.0,0.0,89,0.00,,,0.00,54,Wunderground v.1.15,2015-07-04 10:49:00,
2015-07-04 06:54:00,64.0,61.0,29.98,WSW,258,0.0,0.0,90,0.00,,,0.00,51,Wunderground v.1.15,2015-07-04 10:54:00,
2015-07-04 06:59:00,64.1,61.1,29.98,WSW,258,0.0,0.0,90,0.00,,,0.00,47,Wunderground v.1.15,2015-07-04 10:59:00,
2015-07-04 07:04:00,64.1,61.1,29.98,WSW,258,0.0,0.0,90,0.00,,,0.00,46,Wunderground v.1.15,2015-07-04 11:04:00,
2015-07-04 07:09:00,64.1,61.1,29.98,WSW,258,0.0,0.0,90,0.00,,,0.00,47,Wunderground v.1.15,2015-07-04 11:09:00,
2015-07-04 07:19:00,64.2,61.2,29.98,WSW,258,0.0,0.0,90,0.00,,,0.00,53,Wunderground v.1.15,2015-07-04 11:19:00,
2015-07-04 07:24:00,64.4,61.1,29.99,WSW,258,0.0,0.0,89,0.00,,,0.00,53,Wunderground v.1.15,2015-07-04 11:24:00,
2015-07-04 07:29:00,64.4,61.1,29.99,WSW,258,0.0,0.0,89,0.00,,,0.00,69,Wunderground v.1.15,2015-07-04 11:29:00,
2015-07-04 07:34:00,64.6,61.6,29.99,WSW,258,0.0,0.0,90,0.00,,,0.00,90,Wunderground v.1.15,2015-07-04 11:34:00,
2015-07-04 07:39:00,64.7,61.4,29.99,WSW,258,0.0,0.0,89,0.00,,,0.00,76,Wunderground v.1.15,2015-07-04 11:39:00,
2015-07-04 07:44:00,64.8,61.5,29.99,WSW,258,1.0,1.0,89,0.00,,,0.00,77,Wunderground v.1.15,2015-07-04 11:44:00,
2015-07-04 07:49:00,64.7,61.4,29.99,WSW,258,0.0,1.0,89,0.00,,,0.00,72,Wunderground v.1.15,2015-07-04 11:49:00,
2015-07-04 07:54:00,64.5,61.2,29.99,WSW,258,0.0,1.0,89,0.00,,,0.00,74,Wunderground v.1.15,2015-07-04 11:54:00,
2015-07-04 07:59:00,64.5,61.2,29.99,WSW,258,0.0,1.0,89,0.00,,,0.00,81,Wunderground v.1.15,2015-07-04 11:59:00,
2015-07-04 08:04:00,64.4,61.1,29.99,WSW,258,0.0,0.0,89,0.00,,,0.00,93,Wunderground v.1.15,2015-07-04 12:04:00,
2015-07-04 08:09:00,64.2,60.6,29.99,WSW,258,0.0,1.0,88,0.00,,,0.00,102,Wunderground v.1.15,2015-07-04 12:09:00,
2015-07-04 08:14:00,64.3,60.7,29.99,WSW,258,0.0,1.0,88,0.00,,,0.00,120,Wunderground v.1.15,2015-07-04 12:14:00,
2015-07-04 08:19:00,64.4,60.8,29.99,WSW,258,1.0,1.0,88,0.00,,,0.00,155,Wunderground v.1.15,2015-07-04 12:19:00,
2015-07-04 08:24:00,64.7,61.4,29.98,West,259,0.0,0.0,89,0.00,,,0.00,181,Wunderground v.1.15,2015-07-04 12:24:00,
2015-07-04 08:29:00,65.1,61.5,29.99,West,259,0.0,0.0,88,0.00,,,0.00,186,Wunderground v.1.15,2015-07-04 12:29:00,
2015-07-04 08:34:00,65.1,61.1,29.99,West,259,0.0,1.0,87,0.00,,,0.00,207,Wunderground v.1.15,2015-07-04 12:34:00,
2015-07-04 08:39:00,65.5,61.5,29.98,West,259,0.0,1.0,87,0.00,,,0.00,218,Wunderground v.1.15,2015-07-04 12:39:00,
2015-07-04 08:44:00,65.8,61.8,29.99,West,259,0.0,0.0,87,0.00,,,0.00,216,Wunderground v.1.15,2015-07-04 12:44:00,
2015-07-04 08:49:00,65.8,61.8,29.99,West,259,0.0,0.0,87,0.00,,,0.00,230,Wunderground v.1.15,2015-07-04 12:49:00,
2015-07-04 08:54:00,65.9,61.9,29.99,West,264,0.0,1.0,87,0.00,,,0.00,239,Wunderground v.1.15,2015-07-04 12:54:00,
2015-07-04 09:00:00,66.1,62.1,29.99,West,264,0.0,0.0,87,0.00,,,0.00,292,Wunderground v.1.15,2015-07-04 13:00:00,
2015-07-04 09:05:00,66.1,62.1,29.99,West,265,0.0,1.0,87,0.00,,,0.00,343,Wunderground v.1.15,2015-07-04 13:05:00,
2015-07-04 09:10:00,66.3,62.0,29.99,NNW,327,0.0,0.0,86,0.00,,,0.00,338,Wunderground v.1.15,2015-07-04 13:10:00,
2015-07-04 09:15:00,66.5,61.8,29.99,NNW,327,0.0,2.0,85,0.00,,,0.00,295,Wunderground v.1.15,2015-07-04 13:15:00,
2015-07-04 09:20:00,66.8,62.5,29.99,NNW,336,0.0,0.0,86,0.00,,,0.00,287,Wunderground v.1.15,2015-07-04 13:20:00,
2015-07-04 09:25:00,67.0,62.7,29.99,NNW,336,0.0,1.0,86,0.00,,,0.00,302,Wunderground v.1.15,2015-07-04 13:25:00,
2015-07-04 09:30:00,67.2,62.2,29.99,NNW,336,0.0,1.0,84,0.00,,,0.00,295,Wunderground v.1.15,2015-07-04 13:30:00,
2015-07-04 09:35:00,67.5,62.5,29.99,NNW,331,0.0,2.0,84,0.00,,,0.00,309,Wunderground v.1.15,2015-07-04 13:35:00,
2015-07-04 09:40:00,67.7,62.7,29.99,NNW,331,1.0,1.0,84,0.00,,,0.00,334,Wunderground v.1.15,2015-07-04 13:40:00,
2015-07-04 09:45:00,68.0,63.0,29.99,NNW,332,0.0,2.0,84,0.00,,,0.00,327,Wunderground v.1.15,2015-07-04 13:45:00,
2015-07-04 09:50:00,68.3,62.9,29.99,NNW,346,0.0,1.0,83,0.00,,,0.00,322,Wunderground v.1.15,2015-07-04 13:50:00,
2015-07-04 09:55:00,68.4,62.7,29.99,NNW,344,0.0,2.0,82,0.00,,,0.00,279,Wunderground v.1.15,2015-07-04 13:55:00,
2015-07-04 10:00:00,68.3,62.9,29.99,NNW,344,0.0,0.0,83,0.00,,,0.00,271,Wunderground v.1.15,2015-07-04 14:00:00,
2015-07-04 10:05:00,68.4,63.0,29.99,NNW,344,1.0,1.0,83,0.00,,,0.00,285,Wunderground v.1.15,2015-07-04 14:05:00,
2015-07-04 10:11:00,68.6,63.2,29.99,NNW,336,1.0,1.0,83,0.00,,,0.00,315,Wunderground v.1.15,2015-07-04 14:11:00,
2015-07-04 10:16:00,69.0,63.6,29.99,NNW,336,1.0,1.0,83,0.00,,,0.00,357,Wunderground v.1.15,2015-07-04 14:16:00,
2015-07-04 10:22:00,69.1,63.4,29.99,NNW,348,0.0,1.0,82,0.00,,,0.00,295,Wunderground v.1.15,2015-07-04 14:22:00,
2015-07-04 10:28:00,69.3,63.6,29.99,NW,308,0.0,1.0,82,0.00,,,0.00,376,Wunderground v.1.15,2015-07-04 14:28:00,
2015-07-04 10:33:00,69.5,63.4,29.99,West,279,1.0,1.0,81,0.00,,,0.00,396,Wunderground v.1.15,2015-07-04 14:33:00,
2015-07-04 10:39:00,70.1,64.3,29.99,WNW,287,0.0,2.0,82,0.00,,,0.00,483,Wunderground v.1.15,2015-07-04 14:39:00,
2015-07-04 10:44:00,70.1,64.0,29.99,NNW,342,1.0,2.0,81,0.00,,,0.00,457,Wunderground v.1.15,2015-07-04 14:44:00,
2015-07-04 10:49:00,70.3,64.2,29.98,NNW,337,0.0,2.0,81,0.00,,,0.00,410,Wunderground v.1.15,2015-07-04 14:49:00,
2015-07-04 10:54:00,70.6,64.5,29.98,NNW,333,0.0,1.0,81,0.00,,,0.00,439,Wunderground v.1.15,2015-07-04 14:54:00,
2015-07-04 10:59:00,70.9,64.4,29.98,NNW,333,0.0,1.0,80,0.00,,,0.00,482,Wunderground v.1.15,2015-07-04 14:59:00,
2015-07-04 11:04:00,71.3,64.8,29.98,NNW,330,0.0,1.0,80,0.00,,,0.00,499,Wunderground v.1.15,2015-07-04 15:04:00,
2015-07-04 11:09:00,71.7,64.5,29.98,NNW,330,0.0,1.0,78,0.00,,,0.00,417,Wunderground v.1.15,2015-07-04 15:09:00,
2015-07-04 11:14:00,71.5,64.6,29.98,NNW,330,0.0,2.0,79,0.00,,,0.00,374,Wunderground v.1.15,2015-07-04 15:14:00,
2015-07-04 11:19:00,71.5,64.6,29.98,SSE,167,0.0,2.0,79,0.00,,,0.00,403,Wunderground v.1.15,2015-07-04 15:19:00,
2015-07-04 11:24:00,71.2,64.0,29.99,NW,317,0.0,3.0,78,0.00,,,0.00,399,Wunderground v.1.15,2015-07-04 15:24:00,
2015-07-04 11:29:00,71.7,64.8,29.98,NW,317,0.0,3.0,79,0.00,,,0.00,554,Wunderground v.1.15,2015-07-04 15:29:00,
2015-07-04 11:34:00,71.8,64.2,29.98,WSW,244,0.0,2.0,77,0.00,,,0.00,522,Wunderground v.1.15,2015-07-04 15:34:00,
2015-07-04 11:39:00,71.9,64.3,29.99,NW,307,0.0,2.0,77,0.00,,,0.00,501,Wunderground v.1.15,2015-07-04 15:39:00,
2015-07-04 11:44:00,72.0,64.4,29.98,NW,326,0.0,3.0,77,0.00,,,0.00,568,Wunderground v.1.15,2015-07-04 15:44:00,
2015-07-04 11:49:00,72.6,65.0,29.98,NW,318,1.0,3.0,77,0.00,,,0.00,661,Wunderground v.1.15,2015-07-04 15:49:00,
2015-07-04 11:54:00,73.1,63.1,29.98,NNE,32,0.0,1.0,71,0.00,,,0.00,884,Wunderground v.1.15,2015-07-04 15:54:00,
2015-07-04 11:59:00,73.6,62.4,29.98,NNE,32,0.0,1.0,68,0.00,,,0.00,552,Wunderground v.1.15,2015-07-04 15:59:00,
2015-07-04 12:04:00,73.7,61.2,29.98,NNE,29,0.0,1.0,65,0.00,,,0.00,515,Wunderground v.1.15,2015-07-04 16:04:00,
2015-07-04 12:09:00,73.6,60.7,29.98,NNE,29,0.0,1.0,64,0.00,,,0.00,387,Wunderground v.1.15,2015-07-04 16:09:00,
2015-07-04 12:14:00,73.2,60.3,29.98,NNE,29,0.0,0.0,64,0.00,,,0.00,413,Wunderground v.1.15,2015-07-04 16:14:00,
2015-07-04 12:19:00,73.0,58.3,29.98,SSW,205,1.0,1.0,60,0.00,,,0.00,338,Wunderground v.1.15,2015-07-04 16:19:00,
2015-07-04 12:24:00,72.8,60.8,29.98,SSW,205,0.0,1.0,66,0.00,,,0.00,410,Wunderground v.1.15,2015-07-04 16:24:00,
2015-07-04 12:29:00,73.3,63.3,29.98,SSW,205,0.0,1.0,71,0.00,,,0.00,434,Wunderground v.1.15,2015-07-04 16:29:00,
2015-07-04 12:34:00,73.3,64.1,29.98,NW,305,0.0,2.0,73,0.00,,,0.00,403,Wunderground v.1.15,2015-07-04 16:34:00,
2015-07-04 12:39:00,73.1,63.9,29.98,NNW,343,1.0,3.0,73,0.00,,,0.00,297,Wunderground v.1.15,2015-07-04 16:39:00,
2015-07-04 12:44:00,72.5,63.7,29.98,NNW,343,0.0,1.0,74,0.00,,,0.00,299,Wunderground v.1.15,2015-07-04 16:44:00,
2015-07-04 12:49:00,72.2,63.4,29.98,WNW,300,2.0,2.0,74,0.00,,,0.00,339,Wunderground v.1.15,2015-07-04 16:49:00,
2015-07-04 12:54:00,72.3,63.9,29.98,NNW,336,2.0,4.0,75,0.00,,,0.00,366,Wunderground v.1.15,2015-07-04 16:54:00,
2015-07-04 12:59:00,72.1,63.7,29.98,SW,235,1.0,4.0,75,0.00,,,0.00,313,Wunderground v.1.15,2015-07-04 16:59:00,
2015-07-04 13:04:00,71.9,63.5,29.98,NW,321,0.0,2.0,75,0.00,,,0.00,327,Wunderground v.1.15,2015-07-04 17:04:00,
2015-07-04 13:09:00,71.8,63.4,29.99,West,274,0.0,2.0,75,0.00,,,0.00,306,Wunderground v.1.15,2015-07-04 17:09:00,
2015-07-04 13:14:00,71.7,63.7,29.99,NNE,25,0.0,3.0,76,0.00,,,0.00,258,Wunderground v.1.15,2015-07-04 17:14:00,
2015-07-04 13:19:00,71.4,63.4,29.99,NNE,19,0.0,3.0,76,0.00,,,0.00,417,Wunderground v.1.15,2015-07-04 17:19:00,
2015-07-04 13:24:00,71.6,63.6,29.99,NW,314,1.0,3.0,76,0.00,,,0.00,353,Wunderground v.1.15,2015-07-04 17:24:00,
2015-07-04 13:29:00,71.9,63.9,29.99,WNW,299,2.0,3.0,76,0.00,,,0.00,285,Wunderground v.1.15,2015-07-04 17:29:00,
2015-07-04 13:34:00,71.6,63.6,29.99,NNW,341,1.0,2.0,76,0.00,,,0.00,388,Wunderground v.1.15,2015-07-04 17:34:00,
2015-07-04 13:39:00,71.5,63.9,29.99,NNE,22,0.0,3.0,77,0.00,,,0.00,352,Wunderground v.1.15,2015-07-04 17:39:00,
2015-07-04 13:44:00,71.7,64.1,29.99,North,355,3.0,4.0,77,0.00,,,0.00,311,Wunderground v.1.15,2015-07-04 17:44:00,
2015-07-04 13:49:00,71.4,63.8,29.99,NNW,339,0.0,4.0,77,0.00,,,0.00,237,Wunderground v.1.15,2015-07-04 17:49:00,
2015-07-04 13:54:00,71.0,63.1,29.99,West,269,2.0,3.0,76,0.00,,,0.00,218,Wunderground v.1.15,2015-07-04 17:54:00,
2015-07-04 13:59:00,70.7,62.8,30.00,NNE,16,0.0,3.0,76,0.00,,,0.00,220,Wunderground v.1.15,2015-07-04 17:59:00,
2015-07-04 14:04:00,70.4,63.6,30.00,North,355,1.0,4.0,79,0.00,,,0.00,251,Wunderground v.1.15,2015-07-04 18:04:00,
2015-07-04 14:09:00,70.2,64.1,30.00,NNW,347,0.0,4.0,81,0.00,,,0.00,230,Wunderground v.1.15,2015-07-04 18:09:00,
2015-07-04 14:14:00,70.0,64.2,29.99,WNW,298,0.0,3.0,82,0.00,,,0.00,174,Wunderground v.1.15,2015-07-04 18:14:00,
2015-07-04 14:19:00,69.6,63.9,29.99,North,360,0.0,3.0,82,0.00,,,0.00,195,Wunderground v.1.15,2015-07-04 18:19:00,
2015-07-04 14:24:00,69.7,64.3,29.99,North,355,0.0,2.0,83,0.00,,,0.00,204,Wunderground v.1.15,2015-07-04 18:24:00,
2015-07-04 14:29:00,69.3,63.9,29.99,NNW,344,0.0,5.0,83,0.00,,,0.01,239,Wunderground v.1.15,2015-07-04 18:29:00,
2015-07-04 14:34:00,69.4,64.0,29.99,NNW,344,0.0,0.0,83,0.00,,,0.01,272,Wunderground v.1.15,2015-07-04 18:34:00,
2015-07-04 14:39:00,69.5,64.1,29.99,NNW,327,0.0,4.0,83,0.00,,,0.01,246,Wunderground v.1.15,2015-07-04 18:39:00,
2015-07-04 14:44:00,69.5,64.5,29.99,NNW,327,0.0,1.0,84,0.00,,,0.01,160,Wunderground v.1.15,2015-07-04 18:44:00,
2015-07-04 14:49:00,69.2,64.2,29.99,NNW,338,0.0,2.0,84,0.00,,,0.01,176,Wunderground v.1.15,2015-07-04 18:49:00,
2015-07-04 14:54:00,69.1,64.1,29.98,NNW,338,1.0,2.0,84,0.00,,,0.01,279,Wunderground v.1.15,2015-07-04 18:54:00,
2015-07-04 14:59:00,69.5,64.8,29.98,NNW,338,0.0,2.0,85,0.00,,,0.01,330,Wunderground v.1.15,2015-07-04 18:59:00,
2015-07-04 15:04:00,69.8,65.1,29.98,NW,324,0.0,4.0,85,0.00,,,0.01,325,Wunderground v.1.15,2015-07-04 19:04:00,
2015-07-04 15:09:00,69.7,64.6,29.97,North,351,1.0,4.0,84,0.00,,,0.01,290,Wunderground v.1.15,2015-07-04 19:09:00,
2015-07-04 15:14:00,69.6,64.2,29.97,North,350,1.0,2.0,83,0.00,,,0.01,269,Wunderground v.1.15,2015-07-04 19:14:00,
2015-07-04 15:19:00,69.5,64.1,29.97,North,350,0.0,2.0,83,0.00,,,0.01,243,Wunderground v.1.15,2015-07-04 19:19:00,
2015-07-04 15:24:00,69.5,63.8,29.97,NW,317,0.0,2.0,82,0.00,,,0.01,234,Wunderground v.1.15,2015-07-04 19:24:00,
2015-07-04 15:29:00,69.4,64.0,29.97,NW,317,0.0,2.0,83,0.00,,,0.01,220,Wunderground v.1.15,2015-07-04 19:29:00,
2015-07-04 15:34:00,69.5,64.1,29.96,SSE,155,1.0,2.0,83,0.00,,,0.01,299,Wunderground v.1.15,2015-07-04 19:34:00,
2015-07-04 15:39:00,70.0,65.3,29.96,SSW,208,1.0,2.0,85,0.00,,,0.01,311,Wunderground v.1.15,2015-07-04 19:39:00,
2015-07-04 15:44:00,70.1,65.0,29.95,NNW,345,1.0,2.0,84,0.00,,,0.01,357,Wunderground v.1.15,2015-07-04 19:44:00,
2015-07-04 15:49:00,70.3,65.2,29.95,WSW,243,3.0,3.0,84,0.00,,,0.01,431,Wunderground v.1.15,2015-07-04 19:49:00,
2015-07-04 15:54:00,70.6,64.8,29.95,NW,308,1.0,3.0,82,0.00,,,0.01,436,Wunderground v.1.15,2015-07-04 19:54:00,
2015-07-04 15:59:00,71.0,65.6,29.96,North,355,0.0,3.0,83,0.00,,,0.01,346,Wunderground v.1.15,2015-07-04 19:59:00,
2015-07-04 16:04:00,70.8,65.0,29.96,North,350,1.0,2.0,82,0.00,,,0.01,322,Wunderground v.1.15,2015-07-04 20:04:00,
2015-07-04 16:09:00,70.7,64.6,29.96,ENE,75,0.0,2.0,81,0.00,,,0.01,366,Wunderground v.1.15,2015-07-04 20:09:00,
2015-07-04 16:15:00,71.0,65.2,29.97,NW,315,0.0,2.0,82,0.00,,,0.01,452,Wunderground v.1.15,2015-07-04 20:15:00,
2015-07-04 16:20:00,71.5,65.0,29.96,NW,315,0.0,0.0,80,0.00,,,0.01,626,Wunderground v.1.15,2015-07-04 20:20:00,
2015-07-04 16:25:00,71.6,64.0,29.96,NE,45,2.0,5.0,77,0.00,,,0.01,371,Wunderground v.1.15,2015-07-04 20:25:00,
2015-07-04 16:30:00,71.3,64.4,29.96,East,80,0.0,1.0,79,0.00,,,0.01,352,Wunderground v.1.15,2015-07-04 20:30:00,
2015-07-04 16:35:00,71.4,64.2,29.96,NNW,336,0.0,3.0,78,0.00,,,0.01,367,Wunderground v.1.15,2015-07-04 20:35:00,
2015-07-04 16:40:00,71.6,64.7,29.96,NNW,336,1.0,1.0,79,0.00,,,0.01,446,Wunderground v.1.15,2015-07-04 20:40:00,
2015-07-04 16:45:00,71.7,64.5,29.96,West,273,0.0,2.0,78,0.00,,,0.01,438,Wunderground v.1.15,2015-07-04 20:45:00,
2015-07-04 16:50:00,71.9,65.0,29.96,West,277,1.0,1.0,79,0.00,,,0.01,480,Wunderground v.1.15,2015-07-04 20:50:00,
2015-07-04 16:55:00,72.9,65.3,29.97,North,10,0.0,3.0,77,0.00,,,0.01,492,Wunderground v.1.15,2015-07-04 20:55:00,
2015-07-04 17:00:00,73.4,65.4,29.96,NNW,343,1.0,1.0,76,0.00,,,0.01,802,Wunderground v.1.15,2015-07-04 21:00:00,
2015-07-04 17:05:00,73.2,64.8,29.96,NNE,17,1.0,3.0,75,0.00,,,0.01,754,Wunderground v.1.15,2015-07-04 21:05:00,
2015-07-04 17:10:00,73.4,65.0,29.96,ENE,68,2.0,2.0,75,0.00,,,0.01,770,Wunderground v.1.15,2015-07-04 21:10:00,
2015-07-04 17:15:00,73.7,64.5,29.96,NNE,31,0.0,3.0,73,0.00,,,0.01,323,Wunderground v.1.15,2015-07-04 21:15:00,
2015-07-04 17:20:00,73.3,64.5,29.97,SSW,213,2.0,4.0,74,0.00,,,0.01,308,Wunderground v.1.15,2015-07-04 21:20:00,
2015-07-04 17:25:00,73.1,65.1,29.97,NW,323,1.0,4.0,76,0.00,,,0.01,812,Wunderground v.1.15,2015-07-04 21:25:00,